Location: Rounton
(54.4000°N, 1.3500°W)
Time: 02:05:50
(UTC+00:00)

A-11 Canister half - Pass Details

Date: 04 December 2021
Orbit: 1524 x 1684 km, 47.3° (Epoch: 19 January)

Event Time Altitude Azimuth Distance (km) Brightness Sun altitude
Exits shadow 05:20:14 31° 252° (WSW) 2,618 9.7 -23.0°
Maximum altitude 05:25:13 56° 191° (S) 1,910 9.4 -22.3°
Drops below altitude 10° 05:34:41 10° 117° (ESE) 3,831 12.1 -20.9°
Sets 05:37:48 0° 113° (ESE) 4,794 13.0 -20.5°
